Regional Weather Roundup
Issued by NWS Goodland, KS

Home | Current Version | Previous Version | Text Only | Print | Product List | Glossary Off
Versions: 1 2 3 4 5 6 7 8 9 10 11 12 13 14 15 16 17 18 19 20 21 22 23 24 25 26 27 28 29 30 31 32 33 34 35 36 37 38 39 40 41 42 43 44 45 46 47 48 49 50

000
ASUS43 KGLD 281708
RWRGLD

GOODLAND FORECAST AREA HOURLY WEATHER ROUNDUP
NATIONAL WEATHER SERVICE GOODLAND KS
1100 AM MDT THU MAY 28 2015

...OFFICIAL OBSERVATIONS...

CITY           SKY/WX    TMP DP  RH WIND       PRES   REMARKS
GOODLAND KS    CLOUDY    68  58  70 S10       30.01R
HILL CITY KS   CLOUDY    70  60  70 SE9       30.02S
IMPERIAL NEB   CLOUDY    63  56  78 SW6       30.01R
MCCOOK NEB     CLOUDY    70  61  73 S9        29.99F
AKRON CO       SUNNY     69  55  60 N12       30.02F
BURLINGTON CO  SUNNY     72  55  55 CALM      30.01F
LIMON CO       SUNNY     70  46  42 VRB6      30.05S
$$

...UNOFFICIAL OBSERVATIONS...

CITY           SKY/WX    TMP DP  RH WIND       PRES   REMARKS
COLBY KS       CLOUDY    66  63  88 SE13      30.03S
NORTON KS      SUNNY     70  55  60 SE10      30.00F
SHARON SPRINGS   N/A     69  61  76 MISG        N/A
$$



USA.gov is the U.S. government's official web portal to all federal, state and local government web resources and services.